TimeHST,TemperatureF,Dew PointF,Humidity,Sea Level PressureIn,VisibilityMPH,Wind Direction,Wind SpeedMPH,Gust SpeedMPH,PrecipitationIn,Events,Conditions,WindDirDegrees,DateUTC
12:56 AM,73.0,64.9,76,30.04,10.0,East,4.6,-,N/A,,Clear,90,2013-07-27 10:56:00
1:56 AM,73.9,64.0,71,30.04,10.0,ENE,3.5,-,N/A,,Clear,70,2013-07-27 11:56:00
2:56 AM,73.0,63.0,71,30.03,10.0,East,3.5,-,N/A,,Clear,80,2013-07-27 12:56:00
3:56 AM,72.0,64.0,76,30.03,10.0,ENE,3.5,-,N/A,,Clear,70,2013-07-27 13:56:00
4:56 AM,75.0,64.0,69,30.04,10.0,Calm,Calm,-,N/A,,Overcast,0,2013-07-27 14:56:00
5:56 AM,75.0,64.9,71,30.04,10.0,Calm,Calm,-,N/A,,Overcast,0,2013-07-27 15:56:00
6:56 AM,75.9,64.9,69,30.06,10.0,SE,3.5,-,N/A,,Overcast,140,2013-07-27 16:56:00
7:56 AM,79.0,64.9,62,30.07,10.0,East,3.5,-,N/A,,Overcast,100,2013-07-27 17:56:00
8:56 AM,81.0,66.9,62,30.06,10.0,Calm,Calm,-,N/A,,Partly Cloudy,0,2013-07-27 18:56:00
9:56 AM,81.0,69.1,67,30.06,10.0,NW,5.8,-,N/A,,Overcast,310,2013-07-27 19:56:00
10:56 AM,82.9,69.1,63,30.05,10.0,Variable,5.8,-,N/A,,Scattered Clouds,0,2013-07-27 20:56:00
11:56 AM,82.0,68.0,62,30.04,10.0,West,6.9,-,N/A,,Scattered Clouds,260,2013-07-27 21:56:00
12:56 PM,84.0,68.0,58,30.01,10.0,WNW,12.7,-,N/A,,Scattered Clouds,290,2013-07-27 22:56:00
1:56 PM,84.9,68.0,57,29.99,10.0,WNW,13.8,-,N/A,,Clear,290,2013-07-27 23:56:00
2:56 PM,84.0,69.1,61,29.98,10.0,West,12.7,-,N/A,,Clear,260,2013-07-28 00:56:00
3:56 PM,82.9,69.1,63,29.97,10.0,West,11.5,-,N/A,,Clear,260,2013-07-28 01:56:00
4:56 PM,82.9,69.1,63,29.97,10.0,West,9.2,-,N/A,,Clear,260,2013-07-28 02:56:00
5:56 PM,84.0,69.1,61,29.98,10.0,NNW,11.5,-,N/A,,Clear,330,2013-07-28 03:56:00
6:56 PM,82.9,68.0,60,29.99,10.0,NNW,5.8,-,N/A,,Clear,330,2013-07-28 04:56:00
7:56 PM,80.1,66.9,64,30.01,10.0,SSE,3.5,-,N/A,,Mostly Cloudy,150,2013-07-28 05:56:00
8:56 PM,79.0,69.1,72,30.03,10.0,Calm,Calm,-,N/A,,Clear,0,2013-07-28 06:56:00
9:56 PM,78.1,68.0,71,30.04,10.0,Calm,Calm,-,N/A,,Scattered Clouds,0,2013-07-28 07:56:00
10:56 PM,78.1,68.0,71,30.04,10.0,Calm,Calm,-,N/A,,Mostly Cloudy,0,2013-07-28 08:56:00
11:56 PM,77.0,66.9,71,30.04,10.0,Calm,Calm,-,N/A,,Overcast,0,2013-07-28 09:56:00